Regional Weather Roundup
Issued by NWS

Home | Current Version | Previous Version | Text Only | Print | Product List | Glossary Off
Versions: 1 2 3 4 5 6 7 8 9 10 11 12 13 14 15 16 17 18 19 20 21 22 23 24 25 26 27 28 29 30 31 32 33 34 35 36 37 38 39 40 41 42 43 44 45 46 47 48 49 50

771
ASUS43 KLSX 232210
RWRMO

WEATHER SUMMARY FOR MISSOURI
NATIONAL WEATHER SERVICE SPRINGFIELD MO
400 PM CST MON JAN 23 2017

NOTE: "FAIR" INDICATES FEW OR NO CLOUDS BELOW 12,000 FEET WITH NO
       SIGNIFICANT WEATHER AND/OR OBSTRUCTIONS TO VISIBILITY.
       CURRENT SKY AND/OR WEATHER CONDITIONS ARE NOT AVAILABLE FOR
       CHILLICOTHE AND FARMINGTON.

MOZ001>031-035>038-043-044-053-054-232300-
...NORTHERN AND WESTERN MISSOURI...

CITY           SKY/WX    TMP DP  RH WIND       PRES   REMARKS
KANSAS CTY INT MOSUNNY   41  31  67 NE5       29.82S
KANSAS C DTWN  SUNNY     43  33  68 NE5       29.83F
LEE`S SUMMIT   SUNNY     42  33  70 E3        29.84S
ST JOSEPH      SUNNY     41  33  73 CALM      29.84S
CHILLICOTHE      N/A     36  31  82 VRB5      29.87R
KIRKSVILLE     CLOUDY    33  30  88 N6        29.85F WCI  28

$$
MOZ066>068-077>081-088>096-101>105-232300-
...SOUTHWEST MISSOURI...

CITY           SKY/WX    TMP DP  RH WIND       PRES   REMARKS
SPRINGFIELD    SUNNY     50  31  48 CALM      29.83S
JOPLIN         SUNNY     52  33  48 S5        29.83F
BRANSON        SUNNY     50  32  50 CALM      29.84F

$$
MOZ032>034-039>042-045>050-055>058-069>072-232300-
...CENTRAL MISSOURI...

CITY           SKY/WX    TMP DP  RH WIND       PRES   REMARKS
COLUMBIA       CLOUDY    37  32  82 NW8       29.86R
JEFFERSON CITY CLOUDY    39  34  82 NW9       29.87R
ROLLA          CLOUDY    43  34  70 W8        29.82S
SEDALIA        MOSUNNY   39  31  72 CALM      29.87S
WHITEMAN AFB   MOSUNNY   41  36  84 CALM      29.85R
WARRENSBURG    SUNNY     39  32  75 CALM      29.85S
OSAGE BEACH    PTSUNNY   44  35  70 VRB3      29.85F

$$
MOZ051-052-059>065-232300-
...EAST CENTRAL MISSOURI...

CITY           SKY/WX    TMP DP  RH WIND       PRES   REMARKS
ST LOUIS INTL  CLOUDY    43  34  70 NW10      29.83S
SPIRIT OF STL  CLOUDY    43  35  73 NW5       29.83F
ST CHARLES     CLOUDY    42  34  73 NW9       29.83S

$$
MOZ072>076-082>087-097>100-106>115-232300-
...SOUTH CENTRAL AND SOUTHEAST MISSOURI...

CITY           SKY/WX    TMP DP  RH WIND       PRES   REMARKS
CAPE GIRARDEAU CLOUDY    45  35  68 N13       29.81R
FARMINGTON     CLOUDY    42  34  73 NW10      29.83R
POPLAR BLUFF   CLOUDY    50  37  61 N13       29.80R
WEST PLAINS    SUNNY     50  33  52 NW8       29.83S

$$




USA.gov is the U.S. government's official web portal to all federal, state and local government web resources and services.